| time (UTC) | temp F | wind direction | speed knots | gust knots | rain 1hr in | rain 24hr in | rain mn in | humidity % | barometer mb |
| 20260505200407 | 57 | 273 | 7.8 | 13.9 | 0.00 | 0.02 | 0.02 | 84 | 1007.8 |
| 20260505195907 | 58 | 283 | 7.0 | 13.9 | 0.00 | 0.02 | 0.02 | 83 | 1007.7 |
| 20260505195408 | 58 | 264 | 4.3 | 13.0 | 0.00 | 0.02 | 0.02 | 82 | 1007.5 |
| 20260505194907 | 58 | 277 | 7.8 | 13.0 | 0.00 | 0.02 | 0.02 | 81 | 1007.5 |
| 20260505194408 | 59 | 279 | 6.1 | 14.8 | 0.00 | 0.02 | 0.02 | 80 | 1007.5 |
| 20260505193908 | 59 | 243 | 5.2 | 15.6 | 0.00 | 0.02 | 0.02 | 81 | 1007.4 |
| 20260505193408 | 59 | 260 | 8.7 | 15.6 | 0.00 | 0.02 | 0.02 | 80 | 1007.6 |
| 20260505192908 | 59 | 266 | 10.4 | 15.6 | 0.00 | 0.02 | 0.02 | 81 | 1007.6 |
| 20260505192407 | 59 | 266 | 9.6 | 18.2 | 0.00 | 0.02 | 0.02 | 81 | 1007.6 |
| 20260505191907 | 60 | 259 | 10.4 | 15.6 | 0.00 | 0.02 | 0.02 | 80 | 1007.6 |
| 20260505191407 | 60 | 272 | 8.7 | 15.6 | 0.00 | 0.02 | 0.02 | 80 | 1007.5 |
| 20260505190908 | 60 | 279 | 7.8 | 15.6 | 0.00 | 0.02 | 0.02 | 80 | 1007.2 |
| 20260505190408 | 61 | 289 | 7.8 | 15.6 | 0.00 | 0.02 | 0.02 | 81 | 1007.2 |
| 20260505185908 | 60 | 291 | 12.2 | 18.2 | 0.00 | 0.02 | 0.02 | 81 | 1007.2 |
| 20260505185408 | 60 | 288 | 11.3 | 20.0 | 0.00 | 0.02 | 0.02 | 82 | 1007.2 |
| 20260505184908 | 60 | 279 | 10.4 | 19.1 | 0.00 | 0.02 | 0.02 | 81 | 1007.3 |
| 20260505184408 | 60 | 281 | 7.8 | 15.6 | 0.00 | 0.02 | 0.02 | 81 | 1007.2 |
| 20260505183908 | 60 | 267 | 7.8 | 20.0 | 0.00 | 0.02 | 0.02 | 81 | 1007.3 |
| 20260505183407 | 60 | 255 | 10.4 | 20.0 | 0.00 | 0.02 | 0.02 | 80 | 1007.5 |
| 20260505182908 | 61 | 259 | 8.7 | 19.1 | 0.00 | 0.02 | 0.02 | 80 | 1007.7 |
| 20260505182407 | 62 | 264 | 12.2 | 20.0 | 0.00 | 0.02 | 0.02 | 79 | 1007.8 |
| 20260505181407 | 63 | 260 | 12.2 | 19.1 | 0.00 | 0.02 | 0.02 | 79 | 1007.5 |
| 20260505180408 | 63 | 275 | 13.9 | 22.6 | 0.00 | 0.02 | 0.02 | 79 | 1007.2 |
| 20260505175908 | 63 | 257 | 11.3 | 19.1 | 0.00 | 0.02 | 0.02 | 80 | 1007.0 |
| 20260505175407 | 63 | 263 | 13.9 | 22.6 | 0.00 | 0.02 | 0.02 | 79 | 1007.0 |
| 20260505174907 | 63 | 263 | 13.9 | 20.9 | 0.00 | 0.02 | 0.02 | 79 | 1006.9 |
| 20260505174407 | 63 | 262 | 11.3 | 25.2 | 0.00 | 0.02 | 0.02 | 78 | 1006.9 |
| 20260505173408 | 64 | 253 | 13.9 | 30.4 | 0.00 | 0.02 | 0.02 | 78 | 1006.7 |
| 20260505172907 | 64 | 276 | 15.6 | 27.8 | 0.00 | 0.02 | 0.02 | 77 | 1006.7 |
| 20260505171907 | 64 | 268 | 15.6 | 28.7 | 0.00 | 0.02 | 0.02 | 78 | 1006.6 |
| 20260505171407 | 64 | 276 | 14.8 | 28.7 | 0.00 | 0.02 | 0.02 | 79 | 1006.7 |
| 20260505170908 | 63 | 275 | 17.4 | 27.8 | 0.00 | 0.02 | 0.02 | 78 | 1006.6 |
| 20260505170407 | 63 | 260 | 13.9 | 28.7 | 0.00 | 0.02 | 0.02 | 79 | 1006.7 |
| 20260505165908 | 62 | 270 | 15.6 | 33.9 | 0.00 | 0.02 | 0.02 | 80 | 1006.7 |
| 20260505164908 | 62 | 257 | 18.2 | 28.7 | 0.00 | 0.02 | 0.02 | 79 | 1006.8 |
| 20260505164408 | 62 | 249 | 16.5 | 31.3 | 0.00 | 0.02 | 0.02 | 79 | 1007.0 |
| 20260505163907 | 61 | 257 | 20.0 | 40.8 | 0.00 | 0.02 | 0.02 | 79 | 1007.0 |
| 20260505163407 | 61 | 277 | 19.1 | 39.1 | 0.00 | 0.02 | 0.02 | 79 | 1006.9 |
| 20260505162908 | 62 | 264 | 16.5 | 30.4 | 0.00 | 0.02 | 0.02 | 78 | 1007.0 |
| 20260505162407 | 62 | 253 | 16.5 | 30.4 | 0.00 | 0.02 | 0.02 | 78 | 1007.0 |
| 20260505161908 | 62 | 261 | 15.6 | 34.8 | 0.00 | 0.02 | 0.02 | 79 | 1006.7 |
| 20260505161408 | 62 | 256 | 14.8 | 33.0 | 0.00 | 0.02 | 0.02 | 78 | 1006.5 |
| 20260505160907 | 62 | 254 | 16.5 | 33.0 | 0.00 | 0.02 | 0.02 | 78 | 1006.5 |
| 20260505160407 | 61 | 252 | 14.8 | 26.1 | 0.00 | 0.02 | 0.02 | 80 | 1006.4 |
| 20260505152908 | 61 | 262 | 15.6 | 26.1 | 0.00 | 0.02 | 0.02 | 79 | 1006.5 |
| 20260505151907 | 62 | 261 | 13.9 | 31.3 | 0.00 | 0.02 | 0.02 | 80 | 1006.4 |
| 20260505151408 | 61 | 269 | 16.5 | 31.3 | 0.00 | 0.02 | 0.02 | 81 | 1006.5 |
| 20260505150407 | 60 | 263 | 15.6 | 26.1 | 0.00 | 0.02 | 0.02 | 80 | 1006.2 |
| 20260505124907 | 55 | 249 | 12.2 | 24.3 | 0.00 | 0.02 | 0.02 | 85 | 1004.3 |
| 20260505123907 | 56 | 254 | 13.9 | 22.6 | 0.00 | 0.02 | 0.02 | 86 | 1004.1 |
| 20260505122908 | 56 | 253 | 13.0 | 22.6 | 0.00 | 0.02 | 0.02 | 86 | 1004.2 |
| 20260505122407 | 56 | 248 | 11.3 | 30.4 | 0.00 | 0.02 | 0.02 | 86 | 1004.2 |
| 20260505121908 | 56 | 255 | 10.4 | 22.6 | 0.00 | 0.02 | 0.02 | 85 | 1004.2 |
| 20260505121408 | 56 | 250 | 9.6 | 25.2 | 0.00 | 0.02 | 0.02 | 85 | 1004.2 |
| 20260505120908 | 57 | 248 | 14.8 | 26.1 | 0.00 | 0.02 | 0.02 | 84 | 1004.3 |
| 20260505120407 | 57 | 264 | 12.2 | 26.1 | 0.00 | 0.02 | 0.02 | 84 | 1004.1 |
| 20260505115907 | 57 | 260 | 12.2 | 30.4 | 0.00 | 0.02 | 0.02 | 85 | 1003.9 |
| 20260505115407 | 56 | 257 | 14.8 | 27.8 | 0.00 | 0.02 | 0.02 | 87 | 1003.9 |
| 20260505114908 | 55 | 262 | 11.3 | 22.6 | 0.00 | 0.02 | 0.02 | 87 | 1003.9 |
| 20260505114407 | 55 | 273 | 8.7 | 14.8 | 0.00 | 0.02 | 0.02 | 87 | 1003.8 |
| 20260505113907 | 55 | 271 | 10.4 | 18.2 | 0.00 | 0.02 | 0.02 | 87 | 1003.8 |
| 20260505113407 | 55 | 275 | 7.8 | 20.0 | 0.00 | 0.02 | 0.02 | 87 | 1003.6 |
| 20260505112907 | 55 | 279 | 8.7 | 19.1 | 0.00 | 0.02 | 0.02 | 86 | 1003.4 |
| 20260505111907 | 55 | 273 | 8.7 | 18.2 | 0.00 | 0.02 | 0.02 | 86 | 1003.3 |
| 20260505111407 | 55 | 257 | 7.8 | 19.1 | 0.00 | 0.02 | 0.02 | 86 | 1003.3 |
| 20260505110907 | 55 | 273 | 10.4 | 20.9 | 0.00 | 0.02 | 0.02 | 87 | 1003.2 |
| 20260505110408 | 54 | 259 | 10.4 | 19.1 | 0.00 | 0.02 | 0.02 | 87 | 1003.2 |
| 20260505101907 | 51 | 261 | 7.0 | 13.0 | 0.00 | 0.02 | 0.02 | 89 | 1002.8 |
| 20260505101407 | 51 | 275 | 7.8 | 14.8 | 0.00 | 0.02 | 0.02 | 89 | 1002.6 |
| 20260505100907 | 51 | 250 | 5.2 | 13.0 | 0.00 | 0.02 | 0.02 | 88 | 1002.5 |
| 20260505100407 | 51 | 233 | 7.8 | 19.1 | 0.00 | 0.02 | 0.02 | 88 | 1002.3 |
| 20260505095907 | 51 | 224 | 7.8 | 15.6 | 0.00 | 0.02 | 0.02 | 88 | 1002.3 |
| 20260505095407 | 51 | 228 | 7.0 | 14.8 | 0.00 | 0.02 | 0.02 | 88 | 1002.3 |
| 20260505094407 | 52 | 217 | 6.1 | 13.0 | 0.00 | 0.02 | 0.02 | 87 | 1002.1 |
| 20260505093907 | 52 | 220 | 8.7 | 14.8 | 0.00 | 0.02 | 0.02 | 87 | 1002.2 |
| 20260505093407 | 52 | 221 | 5.2 | 19.1 | 0.00 | 0.02 | 0.02 | 87 | 1002.2 |
| 20260505092407 | 52 | 251 | 8.7 | 15.6 | 0.00 | 0.02 | 0.02 | 87 | 1002.3 |
| 20260505091907 | 53 | 243 | 6.1 | 13.9 | 0.00 | 0.02 | 0.02 | 88 | 1002.2 |
| 20260505091407 | 53 | 261 | 7.8 | 18.2 | 0.00 | 0.02 | 0.02 | 88 | 1002.1 |
| 20260505090908 | 53 | 274 | 6.1 | 13.9 | 0.00 | 0.02 | 0.02 | 89 | 1002.2 |
| 20260505090407 | 52 | 272 | 10.4 | 20.0 | 0.00 | 0.02 | 0.02 | 89 | 1002.2 |
| 20260505085907 | 52 | 256 | 6.1 | 13.9 | 0.00 | 0.02 | 0.02 | 89 | 1001.9 |
| 20260505085407 | 52 | 264 | 7.8 | 13.9 | 0.00 | 0.02 | 0.02 | 89 | 1002.0 |
| 20260505084907 | 52 | 224 | 7.8 | 15.6 | 0.00 | 0.02 | 0.02 | 90 | 1002.0 |
| 20260505083908 | 52 | 262 | 4.3 | 8.7 | 0.00 | 0.02 | 0.02 | 89 | 1001.9 |
| 20260505083407 | 52 | 268 | 3.5 | 10.4 | 0.00 | 0.02 | 0.02 | 89 | 1001.8 |
| 20260505082907 | 52 | 272 | 5.2 | 13.9 | 0.00 | 0.02 | 0.02 | 90 | 1001.9 |
| 20260505082407 | 52 | 206 | 7.8 | 15.6 | 0.00 | 0.02 | 0.02 | 91 | 1001.9 |
| 20260505081907 | 52 | 266 | 7.0 | 13.9 | 0.00 | 0.02 | 0.02 | 92 | 1002.0 |
| 20260505080907 | 51 | 255 | 5.2 | 11.3 | 0.00 | 0.02 | 0.02 | 92 | 1002.2 |
| 20260505080407 | 52 | 245 | 2.6 | 13.0 | 0.00 | 0.02 | 0.02 | 92 | 1002.2 |
| 20260505075907 | 52 | 229 | 5.2 | 10.4 | 0.00 | 0.02 | 0.02 | 92 | 1002.1 |
| 20260505075408 | 52 | 233 | 2.6 | 6.1 | 0.00 | 0.02 | 0.02 | 94 | 1002.1 |
| 20260505074907 | 52 | 245 | 4.3 | 8.7 | 0.00 | 0.02 | 0.02 | 95 | 1002.1 |
| 20260505074407 | 51 | 225 | 5.2 | 10.4 | 0.00 | 0.02 | 0.02 | 95 | 1002.0 |
| 20260505072907 | 50 | 214 | 1.7 | 7.8 | 0.00 | 0.02 | 0.02 | 96 | 1002.3 |
| 20260505072407 | 50 | 232 | 4.3 | 10.4 | 0.00 | 0.02 | 0.02 | 96 | 1002.5 |
| 20260505071907 | 49 | 240 | 1.7 | 4.3 | 0.00 | 0.02 | 0.02 | 95 | 1002.3 |
| 20260505071407 | 49 | 241 | 0.9 | 4.3 | 0.00 | 0.02 | 0.02 | 95 | 1002.6 |
| 20260505070908 | 49 | 241 | 0.0 | 5.2 | 0.00 | 0.02 | 0.02 | 95 | 1002.6 |
| 20260505065907 | 49 | 242 | 0.0 | 4.3 | 0.00 | 0.02 | 0.02 | 94 | 1002.6 |
| 20260505065407 | 49 | 242 | 1.7 | 4.3 | 0.00 | 0.02 | 0.02 | 94 | 1002.7 |
| 20260505064907 | 49 | 242 | 1.7 | 4.3 | 0.00 | 0.02 | 0.02 | 94 | 1002.8 |
| 20260505064408 | 49 | 241 | 0.0 | 5.2 | 0.00 | 0.02 | 0.02 | 93 | 1002.9 |
| 20260505063907 | 49 | 247 | 1.7 | 5.2 | 0.00 | 0.02 | 0.02 | 93 | 1002.9 |
| 20260505063407 | 50 | 252 | 2.6 | 5.2 | 0.00 | 0.02 | 0.02 | 93 | 1003.0 |
| 20260505062907 | 51 | 189 | 2.6 | 7.8 | 0.00 | 0.02 | 0.02 | 93 | 1003.0 |
| 20260505062407 | 51 | 216 | 5.2 | 8.7 | 0.00 | 0.02 | 0.02 | 94 | 1003.1 |
| 20260505061907 | 52 | 211 | 4.3 | 7.8 | 0.01 | 0.02 | 0.02 | 93 | 1003.3 |
| 20260505061406 | 52 | 211 | 4.3 | 7.8 | 0.02 | 0.02 | 0.02 | 94 | 1003.3 |
| 20260505060907 | 53 | 209 | 3.5 | 8.7 | 0.02 | 0.02 | 0.02 | 94 | 1003.3 |
| 20260505060407 | 53 | 234 | 2.6 | 6.1 | 0.02 | 0.02 | 0.02 | 94 | 1003.3 |
| 20260505055907 | 53 | 244 | 2.6 | 5.2 | 0.02 | 0.02 | 0.02 | 94 | 1003.4 |
| 20260505055407 | 53 | 267 | 1.7 | 5.2 | 0.02 | 0.02 | 0.02 | 94 | 1003.6 |
| 20260505054907 | 53 | 267 | 3.5 | 10.4 | 0.02 | 0.02 | 0.02 | 94 | 1003.9 |
| 20260505054407 | 53 | 283 | 5.2 | 8.7 | 0.02 | 0.02 | 0.02 | 94 | 1004.1 |
| 20260505053907 | 53 | 262 | 3.5 | 13.0 | 0.02 | 0.02 | 0.02 | 93 | 1003.8 |
| 20260505053407 | 53 | 235 | 3.5 | 10.4 | 0.02 | 0.02 | 0.02 | 92 | 1003.9 |
| 20260505052907 | 53 | 249 | 5.2 | 13.9 | 0.02 | 0.02 | 0.02 | 91 | 1003.9 |
| 20260505052407 | 54 | 215 | 5.2 | 18.2 | 0.02 | 0.02 | 0.02 | 90 | 1004.0 |
| 20260505051907 | 55 | 210 | 5.2 | 11.3 | 0.02 | 0.02 | 0.02 | 92 | 1003.9 |
| 20260505051407 | 55 | 252 | 4.3 | 11.3 | 0.01 | 0.01 | 0.01 | 92 | 1003.6 |
| 20260505050907 | 55 | 263 | 7.8 | 15.6 | 0.01 | 0.01 | 0.01 | 91 | 1003.8 |
| 20260505041407 | 57 | 257 | 15.6 | 31.3 | 0.00 | 0.00 | 0.00 | 81 | 1004.0 |
| 20260505040907 | 57 | 247 | 11.3 | 25.2 | 0.00 | 0.00 | 0.00 | 80 | 1003.9 |
| 20260505040407 | 58 | 260 | 11.3 | 25.2 | 0.00 | 0.00 | 0.00 | 80 | 1003.9 |
| 20260505035906 | 59 | 259 | 11.3 | 24.3 | 0.00 | 0.00 | 0.00 | 80 | 1003.8 |
| 20260505034907 | 58 | 251 | 11.3 | 24.3 | 0.00 | 0.00 | 0.00 | 81 | 1003.8 |
| 20260505034407 | 58 | 254 | 14.8 | 31.3 | 0.00 | 0.00 | 0.00 | 82 | 1003.7 |
| 20260505033907 | 57 | 226 | 11.3 | 28.7 | 0.00 | 0.00 | 0.00 | 83 | 1003.5 |
| 20260505033407 | 57 | 245 | 11.3 | 24.3 | 0.00 | 0.00 | 0.00 | 82 | 1003.7 |
| 20260505032908 | 57 | 230 | 10.4 | 20.0 | 0.00 | 0.00 | 0.00 | 82 | 1003.8 |
| 20260505032407 | 57 | 242 | 8.7 | 15.6 | 0.00 | 0.00 | 0.00 | 82 | 1003.9 |
| 20260505031907 | 56 | 228 | 11.3 | 20.9 | 0.00 | 0.00 | 0.00 | 87 | 1003.8 |
| 20260505031407 | 54 | 217 | 10.4 | 18.2 | 0.00 | 0.00 | 0.00 | 86 | 1003.9 |
| 20260505030907 | 54 | 264 | 7.0 | 19.1 | 0.00 | 0.00 | 0.00 | 87 | 1003.6 |
| 20260505030406 | 53 | 224 | 8.7 | 15.6 | 0.00 | 0.00 | 0.00 | 87 | 1003.7 |
| 20260505025407 | 52 | 203 | 2.6 | 11.3 | 0.00 | 0.00 | 0.00 | 89 | 1003.4 |
| 20260505024907 | 52 | 241 | 1.7 | 5.2 | 0.00 | 0.00 | 0.00 | 88 | 1003.5 |
| 20260505024407 | 52 | 249 | 1.7 | 4.3 | 0.00 | 0.00 | 0.00 | 88 | 1003.6 |
| 20260505023407 | 52 | 266 | 2.6 | 5.2 | 0.00 | 0.00 | 0.00 | 87 | 1003.7 |
| 20260505022907 | 53 | 245 | 1.7 | 5.2 | 0.00 | 0.00 | 0.00 | 86 | 1003.7 |
| 20260505022409 | 53 | 253 | 2.6 | 5.2 | 0.00 | 0.00 | 0.00 | 85 | 1003.7 |
| 20260505021407 | 54 | 231 | 4.3 | 8.7 | 0.00 | 0.00 | 0.00 | 83 | 1003.9 |
| 20260505020907 | 54 | 217 | 2.6 | 6.1 | 0.00 | 0.00 | 0.00 | 82 | 1004.0 |
| 20260505015907 | 56 | 215 | 5.2 | 14.8 | 0.00 | 0.00 | 0.00 | 80 | 1004.3 |
| 20260505015407 | 56 | 217 | 5.2 | 11.3 | 0.00 | 0.00 | 0.00 | 80 | 1004.3 |
| 20260505014907 | 56 | 221 | 7.8 | 13.9 | 0.00 | 0.00 | 0.00 | 80 | 1004.2 |
| 20260505014407 | 56 | 223 | 6.1 | 15.6 | 0.00 | 0.00 | 0.00 | 81 | 1004.2 |
| 20260505013407 | 56 | 235 | 6.1 | 13.9 | 0.00 | 0.00 | 0.00 | 83 | 1004.1 |
| 20260505012907 | 56 | 261 | 4.3 | 10.4 | 0.00 | 0.00 | 0.00 | 80 | 1004.1 |
| 20260505012407 | 56 | 287 | 5.2 | 20.9 | 0.00 | 0.00 | 0.00 | 78 | 1004.3 |
| 20260505011906 | 56 | 210 | 11.3 | 24.3 | 0.00 | 0.00 | 0.00 | 76 | 1004.4 |
| 20260505011407 | 56 | 257 | 8.7 | 18.2 | 0.00 | 0.00 | 0.00 | 74 | 1004.7 |
| 20260505010907 | 55 | 233 | 2.6 | 6.1 | 0.00 | 0.00 | 0.00 | 74 | 1004.0 |
| 20260505010407 | 55 | 231 | 2.6 | 6.1 | 0.00 | 0.00 | 0.00 | 74 | 1003.8 |
| 20260505005907 | 55 | 233 | 1.7 | 4.3 | 0.00 | 0.00 | 0.00 | 75 | 1003.9 |
| 20260505005407 | 55 | 233 | 1.7 | 6.1 | 0.00 | 0.00 | 0.00 | 75 | 1003.8 |
| 20260505004906 | 55 | 239 | 1.7 | 5.2 | 0.00 | 0.00 | 0.00 | 75 | 1003.9 |
| 20260505004407 | 55 | 203 | 2.6 | 5.2 | 0.00 | 0.00 | 0.00 | 75 | 1003.9 |
| 20260505003907 | 55 | 199 | 0.9 | 5.2 | 0.00 | 0.00 | 0.00 | 76 | 1003.8 |
| 20260505003407 | 55 | 199 | 0.9 | 4.3 | 0.00 | 0.00 | 0.00 | 76 | 1003.8 |
| 20260505002907 | 55 | 198 | 0.9 | 2.6 | 0.00 | 0.00 | 0.00 | 75 | 1003.7 |
| 20260505002407 | 55 | 198 | 0.9 | 4.3 | 0.00 | 0.00 | 0.00 | 75 | 1003.7 |
| 20260505001907 | 55 | 198 | 0.9 | 2.6 | 0.00 | 0.00 | 0.00 | 74 | 1003.6 |
| 20260505001407 | 56 | 198 | 1.7 | 4.3 | 0.00 | 0.00 | 0.00 | 73 | 1003.7 |
| 20260505000907 | 56 | 197 | 0.9 | 4.3 | 0.00 | 0.00 | 0.00 | 72 | 1003.8 |
| 20260505000407 | 57 | 197 | 1.7 | 7.8 | 0.00 | 0.00 | 0.00 | 70 | 1003.9 |
| 20260504235907 | 58 | 204 | 2.6 | 5.2 | 0.00 | 0.00 | 0.00 | 69 | 1003.9 |
| 20260504235407 | 59 | 205 | 4.3 | 5.2 | 0.00 | 0.00 | 0.00 | 67 | 1003.9 |
| 20260504234907 | 60 | 208 | 0.9 | 5.2 | 0.00 | 0.00 | 0.00 | 66 | 1003.9 |
| 20260504234406 | 60 | 210 | 4.3 | 7.8 | 0.00 | 0.00 | 0.00 | 65 | 1004.0 |
| 20260504233907 | 60 | 252 | 2.6 | 6.1 | 0.00 | 0.00 | 0.00 | 65 | 1004.1 |
| 20260504233406 | 61 | 264 | 2.6 | 8.7 | 0.00 | 0.00 | 0.00 | 65 | 1004.3 |
| 20260504232407 | 61 | 266 | 4.3 | 11.3 | 0.00 | 0.00 | 0.00 | 64 | 1004.4 |
| 20260504231907 | 61 | 256 | 4.3 | 11.3 | 0.00 | 0.00 | 0.00 | 64 | 1004.4 |
| 20260504231407 | 61 | 253 | 5.2 | 14.8 | 0.00 | 0.00 | 0.00 | 62 | 1004.4 |
| 20260504230907 | 62 | 251 | 6.1 | 13.9 | 0.00 | 0.00 | 0.00 | 63 | 1004.5 |
| 20260504230406 | 62 | 263 | 5.2 | 11.3 | 0.00 | 0.00 | 0.00 | 62 | 1004.6 |
| 20260504225907 | 63 | 252 | 2.6 | 13.9 | 0.00 | 0.00 | 0.00 | 61 | 1004.7 |
| 20260504225406 | 63 | 284 | 6.1 | 13.9 | 0.00 | 0.00 | 0.00 | 60 | 1004.7 |
| 20260504223906 | 66 | 267 | 6.1 | 13.9 | 0.00 | 0.00 | 0.00 | 55 | 1004.6 |
| 20260504223407 | 66 | 233 | 6.1 | 14.8 | 0.00 | 0.00 | 0.00 | 55 | 1004.6 |
| 20260504222907 | 66 | 242 | 6.1 | 13.9 | 0.00 | 0.00 | 0.00 | 55 | 1004.6 |
| 20260504222407 | 67 | 262 | 7.0 | 15.6 | 0.00 | 0.00 | 0.00 | 55 | 1004.6 |
| 20260504221906 | 67 | 247 | 4.3 | 15.6 | 0.00 | 0.00 | 0.00 | 54 | 1004.5 |
| 20260504221407 | 67 | 259 | 7.8 | 15.6 | 0.00 | 0.00 | 0.00 | 54 | 1004.6 |
| 20260504220906 | 67 | 248 | 8.7 | 15.6 | 0.00 | 0.00 | 0.00 | 54 | 1004.6 |
| 20260504220406 | 67 | 258 | 8.7 | 20.9 | 0.00 | 0.00 | 0.00 | 55 | 1004.4 |
| 20260504215907 | 66 | 237 | 7.8 | 20.9 | 0.00 | 0.00 | 0.00 | 57 | 1004.4 |
| 20260504215406 | 65 | 243 | 10.4 | 14.8 | 0.00 | 0.00 | 0.00 | 58 | 1004.4 |
| 20260504214907 | 65 | 230 | 8.7 | 19.1 | 0.00 | 0.00 | 0.00 | 61 | 1004.4 |
| 20260504214407 | 64 | 248 | 6.1 | 18.2 | 0.00 | 0.00 | 0.00 | 61 | 1004.3 |
| 20260504213906 | 64 | 242 | 7.0 | 14.8 | 0.00 | 0.00 | 0.00 | 64 | 1004.4 |
| 20260504213407 | 63 | 243 | 6.1 | 18.2 | 0.00 | 0.00 | 0.00 | 64 | 1004.5 |
| 20260504212906 | 63 | 228 | 7.8 | 15.6 | 0.00 | 0.00 | 0.00 | 65 | 1004.4 |
| 20260504212407 | 62 | 220 | 8.7 | 18.2 | 0.00 | 0.00 | 0.00 | 66 | 1004.5 |
| 20260504211906 | 61 | 246 | 6.1 | 14.8 | 0.00 | 0.00 | 0.00 | 68 | 1004.5 |
| 20260504211406 | 61 | 226 | 6.1 | 13.0 | 0.00 | 0.00 | 0.00 | 68 | 1004.5 |
| 20260504210907 | 62 | 220 | 8.7 | 18.2 | 0.00 | 0.00 | 0.00 | 65 | 1004.4 |
| 20260504210407 | 64 | 218 | 9.6 | 15.6 | 0.00 | 0.00 | 0.00 | 62 | 1004.4 |
| 20260504205906 | 65 | 216 | 8.7 | 14.8 | 0.00 | 0.00 | 0.00 | 62 | 1004.4 |
| 20260504205406 | 65 | 233 | 6.1 | 13.9 | 0.00 | 0.00 | 0.00 | 62 | 1004.4 |
| 20260504204906 | 65 | 232 | 7.0 | 18.2 | 0.00 | 0.00 | 0.00 | 61 | 1004.5 |
| 20260504204407 | 65 | 225 | 7.8 | 14.8 | 0.00 | 0.00 | 0.00 | 61 | 1004.4 |
| 20260504203906 | 65 | 258 | 6.1 | 15.6 | 0.00 | 0.00 | 0.00 | 62 | 1004.5 |
| 20260504203406 | 65 | 222 | 6.1 | 11.3 | 0.00 | 0.00 | 0.00 | 63 | 1004.5 |
| 20260504202907 | 64 | 246 | 6.1 | 13.0 | 0.00 | 0.00 | 0.00 | 62 | 1004.7 |
| 20260504202407 | 65 | 231 | 5.2 | 11.3 | 0.00 | 0.00 | 0.00 | 61 | 1004.7 |
| 20260504201907 | 65 | 233 | 6.1 | 13.9 | 0.00 | 0.00 | 0.00 | 61 | 1004.8 |
| 20260504201406 | 65 | 247 | 8.7 | 14.8 | 0.00 | 0.00 | 0.00 | 62 | 1004.9 |
| 20260504200907 | 64 | 247 | 6.1 | 14.8 | 0.00 | 0.00 | 0.00 | 64 | 1005.0 |